Location: Gull Harbor
(47.1000°N, 122.9000°W)
Time: 10:03:52
(UTC-08:00)

N. Korean satellite - Pass Details

Date: 23 January 2018
Orbit: 459 x 514 km, 97.2° (Epoch: 24 February)

Event Time Altitude Azimuth Distance (km) Brightness Sun altitude
Rises 17:55:13 0° 164° (SSE) 2,546 10.3 -9.3°
Reaches altitude 10° 17:57:18 10° 163° (SSE) 1,661 9.3 -9.7°
Maximum altitude 18:00:52 81° 76° (ENE) 490 6.4 -10.2°
Drops below altitude 10° 18:04:24 10° 349° (N) 1,646 9.2 -10.8°
Sets 18:06:27 0° 349° (N) 2,521 10.1 -11.2°
